Wind from 265 at 3 knots gusting 6

Air temperature 14.4° C
Dewpoint 8.8° C

Last reported at 2014-Apr-24 21:52 UTC.
Time now 2014-Apr-24 22:15 UTC

Location: N 37°26' W 006°03'.
View on Google Maps.

See reports from other nearby stations

Tides Stations Pressure Air Temp Water Temp Dewpoint Dewpoint depression Visibility Wind Speed Wind Dir Waves Ship positions

  
sailing weather and tide predictions

EA8CHC Sevilla ES weather

date/time (UTC)wind fromknots sea level pressurealtimeterstation pressurevisibilityair tempwater tempwave heightnotes
2014-Apr-24 21:52 265 3 gusting 6 14.4
2014-Apr-24 21:47 267 4 gusting 6 14.4
2014-Apr-24 21:42 277 4 gusting 6 14.4
2014-Apr-24 21:37 284 3 gusting 6 14.4
2014-Apr-24 21:32 279 3 gusting 5 13.9
2014-Apr-24 21:27 278 2 gusting 5 13.9
2014-Apr-24 21:22 282 2 gusting 5 13.9
2014-Apr-24 21:17 288 2 gusting 5 13.9
2014-Apr-24 21:12 307 2 gusting 6 13.9
2014-Apr-24 21:07 310 2 gusting 5 14.4
2014-Apr-24 21:02 309 2 gusting 7 14.4
2014-Apr-24 20:57 326 2 gusting 7 14.4
2014-Apr-24 20:52 313 3 gusting 7 14.4
2014-Apr-24 20:47 307 4 gusting 7 14.4
2014-Apr-24 20:42 311 3 gusting 6 14.4
2014-Apr-24 20:37 280 3 gusting 6 15.0
2014-Apr-24 20:32 298 2 gusting 6 15.6
2014-Apr-24 20:27 297 2 gusting 6 15.6
2014-Apr-24 20:22 319 2 gusting 6 15.6
2014-Apr-24 20:17 292 3 gusting 7 15.6
2014-Apr-24 20:12 299 4 gusting 11 16.1
2014-Apr-24 20:07 285 5 gusting 11 16.1
2014-Apr-24 20:02 304 6 gusting 11 16.1
2014-Apr-24 19:57 332 6 gusting 11 16.1
2014-Apr-24 19:52 339 4 gusting 8 16.1
2014-Apr-24 19:47 325 2 gusting 8 16.1
2014-Apr-24 19:42 334 3 gusting 8 16.1
2014-Apr-24 19:37 281 3 gusting 8 16.1
2014-Apr-24 19:32 278 3 gusting 9 16.1
2014-Apr-24 19:27 288 3 gusting 9 16.7
2014-Apr-24 19:22 297 4 gusting 9 16.7
2014-Apr-24 19:17 290 5 gusting 9 16.7
2014-Apr-24 19:12 277 5 gusting 9 17.2
2014-Apr-24 19:07 305 5 gusting 9 17.2
2014-Apr-24 19:02 303 5 gusting 12 17.2
2014-Apr-24 18:57 278 4 gusting 12 17.8
2014-Apr-24 18:52 304 5 gusting 12 17.8
2014-Apr-24 18:47 312 6 gusting 12 18.3
2014-Apr-24 18:42 276 6 gusting 11 18.3
2014-Apr-24 18:37 280 6 gusting 10 18.3
2014-Apr-24 18:32 284 5 gusting 10 18.3
2014-Apr-24 18:27 306 5 gusting 10 18.3
2014-Apr-24 18:22 296 5 gusting 10 18.3
2014-Apr-24 18:17 298 5 gusting 12 18.3
2014-Apr-24 18:12 279 5 gusting 12 18.3
2014-Apr-24 18:07 308 6 gusting 11 18.3
2014-Apr-24 18:02 280 5 gusting 11 18.3
2014-Apr-24 17:57 300 4 gusting 11 18.3
2014-Apr-24 17:52 295 5 gusting 10 18.3
2014-Apr-24 17:47 319 5 gusting 13 18.3
2014-Apr-24 17:42 327 6 gusting 17 18.3
2014-Apr-24 17:32 319 7 gusting 19 18.9
2014-Apr-24 17:27 306 8 gusting 19 18.3
2014-Apr-24 17:22 305 10 gusting 19 18.3
2014-Apr-24 17:17 279 10 gusting 19 18.9
2014-Apr-24 17:12 303 8 gusting 16 18.9
2014-Apr-24 17:07 321 9 gusting 20 18.3
2014-Apr-24 17:02 305 11 gusting 20 18.3
2014-Apr-24 16:57 020 12 gusting 20 18.3
2014-Apr-24 16:52 307 11 gusting 19 18.3
2014-Apr-24 16:47 309 11 gusting 19 18.9
2014-Apr-24 16:42 305 11 gusting 19 19.4
2014-Apr-24 16:37 265 10 gusting 17 20.6
2014-Apr-24 16:32 265 10 gusting 20 20.6
2014-Apr-24 16:27 261 11 gusting 20 20.6
2014-Apr-24 16:22 258 11 gusting 18 20.6
2014-Apr-24 16:17 277 9 gusting 17 21.1
2014-Apr-24 16:07 279 8 gusting 19 21.1
2014-Apr-24 16:02 283 9 gusting 19 21.1
2014-Apr-24 15:57 251 10 gusting 19 21.1
2014-Apr-24 15:52 263 8 gusting 14 21.1
2014-Apr-24 15:47 292 7 gusting 14 21.7
2014-Apr-24 15:42 267 8 gusting 16 21.1
2014-Apr-24 15:37 273 8 gusting 16 21.1
2014-Apr-24 15:32 279 7 gusting 15 20.6
2014-Apr-24 15:27 277 6 gusting 15 20.6
2014-Apr-24 15:22 261 7 gusting 15 20.6
2014-Apr-24 15:17 252 9 gusting 15 20.6
2014-Apr-24 15:12 277 9 gusting 14 21.1
2014-Apr-24 14:57 290 12 gusting 18 20.6
2014-Apr-24 14:52 280 11 gusting 18 21.1
2014-Apr-24 14:47 267 11 gusting 18 21.1
2014-Apr-24 14:42 287 10 gusting 19 21.1
2014-Apr-24 14:32 273 11 gusting 20 21.1
2014-Apr-24 14:27 272 12 gusting 20 20.6
2014-Apr-24 14:17 284 8 gusting 17 21.1
2014-Apr-24 14:12 292 10 gusting 19 20.6
2014-Apr-24 14:07 290 11 gusting 20 20.6
2014-Apr-24 14:02 268 12 gusting 17 20.6
2014-Apr-24 13:57 290 12 gusting 17 20.6
2014-Apr-24 13:52 314 10 gusting 17 21.1
2014-Apr-24 13:47 319 11 gusting 17 21.1
2014-Apr-24 13:42 288 10 gusting 17 21.1
2014-Apr-24 13:32 311 9 gusting 17 20.6
2014-Apr-24 13:27 294 10 gusting 17 21.1
2014-Apr-24 13:22 300 8 gusting 19 20.6
2014-Apr-24 13:17 274 8 gusting 19 20.6
2014-Apr-24 13:12 274 8 gusting 19 21.1
2014-Apr-24 13:07 290 9 gusting 18 21.1
2014-Apr-24 13:02 270 8 gusting 18 20.6
2014-Apr-24 12:57 282 9 gusting 18 20.6
2014-Apr-24 12:47 294 6 gusting 15 20.6
2014-Apr-24 12:42 238 7 gusting 15 20.6
2014-Apr-24 12:37 334 6 gusting 13 20.6
2014-Apr-24 12:32 243 6 gusting 17 20.6
2014-Apr-24 12:27 296 6 gusting 17 20.6
2014-Apr-24 12:22 275 6 gusting 17 20.6
2014-Apr-24 12:17 273 9 gusting 19 20.6
2014-Apr-24 12:12 265 10 gusting 19 20.6
2014-Apr-24 12:07 255 10 gusting 16 20.0
2014-Apr-24 12:02 280 9 gusting 16 20.6
2014-Apr-24 11:57 272 7 gusting 16 20.6
2014-Apr-24 11:52 278 8 gusting 16 20.0
2014-Apr-24 11:47 284 9 gusting 16 20.0
2014-Apr-24 11:42 273 7 gusting 14 20.0
2014-Apr-24 11:37 273 7 gusting 16 19.4
2014-Apr-24 11:32 290 8 gusting 16 19.4
2014-Apr-24 11:27 278 8 gusting 14 19.4
2014-Apr-24 11:22 284 8 gusting 15 19.4
2014-Apr-24 11:17 290 8 gusting 15 19.4
2014-Apr-24 11:12 267 8 gusting 14 19.4
2014-Apr-24 11:07 261 9 gusting 13 19.4
2014-Apr-24 11:02 307 6 gusting 16 19.4
2014-Apr-24 10:57 235 6 gusting 16 19.4
2014-Apr-24 10:52 216 7 gusting 16 19.4
2014-Apr-24 10:47 273 8 gusting 16 18.9
2014-Apr-24 10:42 279 6 gusting 13 18.9
2014-Apr-24 10:37 275 5 gusting 13 18.9
2014-Apr-24 10:32 275 6 gusting 15 18.9
2014-Apr-24 10:27 271 7 gusting 15 18.9
2014-Apr-24 10:22 273 7 gusting 17 18.9
2014-Apr-24 10:17 274 6 gusting 17 18.9
2014-Apr-24 10:12 280 8 gusting 17 18.3
2014-Apr-24 10:07 282 8 gusting 14 18.3
2014-Apr-24 10:02 281 6 gusting 13 18.3
2014-Apr-24 09:57 284 5 gusting 13 18.3
2014-Apr-24 09:52 307 6 gusting 13 17.8
2014-Apr-24 09:47 250 6 gusting 9 17.8
2014-Apr-24 09:42 268 5 gusting 10 17.8
2014-Apr-24 09:37 281 4 gusting 10 17.2
2014-Apr-24 09:32 296 5 gusting 10 17.2
2014-Apr-24 09:27 279 5 gusting 12 17.2
2014-Apr-24 09:22 275 5 gusting 12 16.7
2014-Apr-24 09:17 274 6 gusting 11 16.7
2014-Apr-24 09:12 248 6 gusting 11 16.7
2014-Apr-24 09:07 265 5 gusting 10 16.7
2014-Apr-24 09:02 260 4 gusting 11 16.7
2014-Apr-24 08:57 285 4 gusting 11 16.1
2014-Apr-24 08:52 265 6 gusting 11 16.1
2014-Apr-24 08:47 289 6 gusting 11 16.1
2014-Apr-24 08:42 288 5 gusting 7 16.1
2014-Apr-24 08:37 283 4 gusting 7 16.1
2014-Apr-24 08:32 267 4 gusting 6 15.6
2014-Apr-24 08:27 264 4 gusting 6 15.6
2014-Apr-24 08:22 248 2 gusting 6 15.6
2014-Apr-24 08:17 264 2 gusting 6 15.0
2014-Apr-24 08:12 257 2 gusting 7 15.0
2014-Apr-24 08:07 283 3 gusting 7 14.4
2014-Apr-24 08:02 282 4 gusting 6 14.4
2014-Apr-24 07:57 271 3 gusting 6 14.4
2014-Apr-24 07:52 286 0 gusting 4 14.4
2014-Apr-24 07:47 286 14.4
2014-Apr-24 07:42 285 14.4
2014-Apr-24 07:37 286 14.4
2014-Apr-24 07:32 286 14.4
2014-Apr-24 07:27 285 14.4
2014-Apr-24 07:22 285 0 gusting 1 13.9
2014-Apr-24 07:17 286 0 gusting 2 13.9
2014-Apr-24 07:12 286 0 gusting 2 13.9
2014-Apr-24 07:07 286 0 gusting 2 13.9
2014-Apr-24 07:02 286 0 13.9
2014-Apr-24 06:57 286 13.9
2014-Apr-24 06:52 286 13.9
2014-Apr-24 06:47 286 13.3
2014-Apr-24 06:42 285 13.3
2014-Apr-24 06:37 286 13.3
2014-Apr-24 06:32 286 13.3
2014-Apr-24 06:27 286 13.3
2014-Apr-24 06:22 286 13.3
2014-Apr-24 06:17 286 12.8
2014-Apr-24 06:12 286 12.8
2014-Apr-24 06:07 286 12.8
2014-Apr-24 06:02 286 12.8
2014-Apr-24 05:57 285 12.8
2014-Apr-24 05:52 286 12.8
2014-Apr-24 05:47 286 12.8
2014-Apr-24 05:42 286 12.8
2014-Apr-24 05:37 286 12.8
2014-Apr-24 05:32 285 12.8
2014-Apr-24 05:27 286 12.8
2014-Apr-24 05:22 286 0 gusting 2 12.8
2014-Apr-24 05:17 285 0 gusting 2 12.8
2014-Apr-24 05:12 286 0 gusting 2 12.8
2014-Apr-24 05:07 285 0 gusting 2 12.8
2014-Apr-24 05:02 285 12.8
2014-Apr-24 04:57 286 12.8
2014-Apr-24 04:52 286 12.8
2014-Apr-24 04:47 286 12.8
2014-Apr-24 04:42 286 12.8
2014-Apr-24 04:37 285 12.8
2014-Apr-24 04:32 286 12.8
2014-Apr-24 04:27 286 13.3
2014-Apr-24 04:22 286 13.3
2014-Apr-24 04:17 286 13.3
2014-Apr-24 04:12 285 13.3
2014-Apr-24 04:07 286 0 gusting 2 13.3
2014-Apr-24 04:02 286 0 13.3
2014-Apr-24 03:57 286 13.9
2014-Apr-24 03:52 285 13.9
2014-Apr-24 03:47 286 13.9
2014-Apr-24 03:42 285 13.9
2014-Apr-24 03:37 285 13.9
2014-Apr-24 03:32 286 13.9
2014-Apr-24 03:27 286 13.9
2014-Apr-24 03:22 286 14.4
2014-Apr-24 03:17 285 14.4
2014-Apr-24 03:12 286 14.4
2014-Apr-24 03:07 285 14.4
2014-Apr-24 03:02 286 14.4
2014-Apr-24 02:57 286 14.4
2014-Apr-24 02:52 286 14.4
2014-Apr-24 02:47 286 14.4
2014-Apr-24 02:42 286 0 gusting 3 14.4
2014-Apr-24 02:37 286 0 gusting 3 14.4
2014-Apr-24 02:32 286 0 gusting 3 14.4
2014-Apr-24 02:27 286 14.4
2014-Apr-24 02:22 286 14.4
2014-Apr-24 02:17 286 14.4
2014-Apr-24 02:12 286 15.0
2014-Apr-24 02:07 286 15.0
2014-Apr-24 02:02 286 15.0
2014-Apr-24 01:57 286 15.0
2014-Apr-24 01:52 286 15.0
2014-Apr-24 01:47 286 15.0
2014-Apr-24 01:42 285 15.0
2014-Apr-24 01:37 286 15.0
2014-Apr-24 01:32 286 15.0
2014-Apr-24 01:27 286 15.0
2014-Apr-24 01:22 286 15.0
2014-Apr-24 01:17 286 0 gusting 2 15.0
2014-Apr-24 01:12 286 15.0
2014-Apr-24 01:07 286 15.6
2014-Apr-24 01:02 286 15.6
2014-Apr-24 00:57 285 15.6
2014-Apr-24 00:52 285 15.6
2014-Apr-24 00:47 286 15.6
2014-Apr-24 00:42 286 15.6
2014-Apr-24 00:37 286 15.6
2014-Apr-24 00:32 286 15.6
2014-Apr-24 00:27 286 15.6
2014-Apr-24 00:22 286 15.6
2014-Apr-24 00:17 286 15.6
2014-Apr-24 00:12 285 15.6
2014-Apr-24 00:07 285 0 gusting 4 15.6
2014-Apr-24 00:02 285 15.6
2014-Apr-23 23:57 285 0 gusting 6 15.6
2014-Apr-23 23:52 285 2 gusting 8 15.6
2014-Apr-23 23:47 286 4 gusting 9 15.6
2014-Apr-23 23:42 278 6 gusting 9 15.6
2014-Apr-23 23:37 281 6 gusting 9 15.6
2014-Apr-23 23:32 285 6 gusting 8 15.6
2014-Apr-23 23:27 282 5 gusting 8 15.6
2014-Apr-23 23:22 283 5 gusting 7 15.6
2014-Apr-23 23:17 279 5 gusting 7 15.6
2014-Apr-23 23:12 281 5 gusting 7 15.0
2014-Apr-23 23:07 273 6 gusting 7 15.0
2014-Apr-23 23:02 275 6 gusting 7 15.0
2014-Apr-23 22:57 285 6 gusting 9 15.0
2014-Apr-23 22:52 278 6 gusting 10 15.6
2014-Apr-23 22:47 287 6 gusting 10 15.6
2014-Apr-23 22:42 274 6 gusting 10 15.6
2014-Apr-23 22:37 273 6 gusting 10 15.6
2014-Apr-23 22:32 277 6 gusting 9 15.6
2014-Apr-23 22:27 276 6 gusting 9 15.6
2014-Apr-23 22:22 286 6 gusting 10 15.6
2014-Apr-23 22:17 281 6 gusting 12 16.1
2014-Apr-23 22:12 273 6 gusting 12 16.1
2014-Apr-23 22:07 266 6 gusting 12 16.1
2014-Apr-23 22:02 274 6 gusting 11 16.1
2014-Apr-23 21:57 271 6 gusting 12 16.1
2014-Apr-23 21:52 269 7 gusting 13 16.1
2014-Apr-23 21:47 267 7 gusting 13 16.7
2014-Apr-23 21:42 228 6 gusting 13 16.7
2014-Apr-23 21:37 262 6 gusting 10 16.7
2014-Apr-23 21:32 269 5 gusting 9 16.7
2014-Apr-23 21:27 271 6 gusting 11 16.7
2014-Apr-23 21:22 270 6 gusting 11 16.7
2014-Apr-23 21:17 260 6 gusting 11 16.7
2014-Apr-23 21:12 244 6 gusting 11 16.7
2014-Apr-23 21:02 269 6 gusting 10 16.7
2014-Apr-23 20:57 271 6 gusting 10 16.7
2014-Apr-23 20:52 268 6 gusting 8 16.7
2014-Apr-23 20:47 277 5 gusting 8 16.7
2014-Apr-23 20:42 257 5 gusting 8 16.7
2014-Apr-23 20:37 265 5 gusting 8 16.7
2014-Apr-23 20:32 258 5 gusting 8 17.2
2014-Apr-23 20:27 262 5 gusting 8 17.2
2014-Apr-23 20:22 284 5 gusting 8 17.2
2014-Apr-23 20:17 269 4 gusting 8 17.2
2014-Apr-23 20:12 248 3 gusting 8 17.8
2014-Apr-23 20:07 264 3 gusting 8 17.8
2014-Apr-23 20:02 257 3 gusting 8 17.8
2014-Apr-23 19:57 279 3 gusting 6 17.8
2014-Apr-23 19:52 257 3 gusting 6 17.8
2014-Apr-23 19:47 253 2 gusting 8 18.3
2014-Apr-23 19:42 251 3 gusting 8 18.3
2014-Apr-23 19:37 263 3 gusting 7 18.3
2014-Apr-23 19:32 240 2 gusting 6 18.3
2014-Apr-23 19:27 258 2 gusting 7 18.3
2014-Apr-23 19:22 263 3 gusting 7 18.3
2014-Apr-23 19:17 245 2 gusting 7 18.9
2014-Apr-23 19:12 254 2 gusting 6 18.9
2014-Apr-23 19:07 241 2 gusting 6 18.9
2014-Apr-23 19:02 264 2 gusting 6 18.9
2014-Apr-23 18:57 275 2 gusting 6 18.9
2014-Apr-23 18:47 244 3 gusting 9 19.4
2014-Apr-23 18:42 279 3 gusting 8 19.4
2014-Apr-23 18:37 248 4 gusting 9 20.0
2014-Apr-23 18:32 242 5 gusting 9 20.0
2014-Apr-23 18:27 267 4 gusting 8 20.6
2014-Apr-23 18:22 250 3 gusting 8 20.6
2014-Apr-23 18:17 264 4 gusting 11 20.6
2014-Apr-23 18:12 269 5 gusting 11 20.6
2014-Apr-23 18:07 256 6 gusting 11 20.6
2014-Apr-23 18:02 258 6 gusting 11 20.6
2014-Apr-23 17:57 273 6 gusting 11 20.6
2014-Apr-23 17:52 284 5 gusting 12 21.1
2014-Apr-23 17:47 229 6 gusting 12 21.1
2014-Apr-23 17:42 263 6 gusting 12 21.1
2014-Apr-23 17:37 263 6 gusting 12 21.1
2014-Apr-23 17:32 281 7 gusting 12 21.1
2014-Apr-23 17:27 242 7 gusting 13 20.6
2014-Apr-23 17:22 277 7 gusting 13 21.1
2014-Apr-23 17:17 286 6 gusting 13 21.1
2014-Apr-23 17:12 254 6 gusting 13 21.1
2014-Apr-23 17:07 302 6 gusting 13 21.1
2014-Apr-23 17:02 250 6 gusting 12 21.1
2014-Apr-23 16:57 272 6 gusting 13 21.7
2014-Apr-23 16:52 289 6 gusting 13 21.1
2014-Apr-23 16:47 277 6 gusting 12 21.1
2014-Apr-23 16:42 248 5 gusting 9 21.7
2014-Apr-23 16:37 220 5 gusting 11 21.1
2014-Apr-23 16:32 278 6 gusting 11 21.1
2014-Apr-23 16:27 263 6 gusting 10 21.1
2014-Apr-23 16:22 242 6 gusting 11 21.1
2014-Apr-23 16:17 232 5 gusting 11 21.1
2014-Apr-23 16:12 269 4 gusting 11 21.1
2014-Apr-23 16:07 249 5 gusting 10 21.1
2014-Apr-23 16:02 279 5 gusting 10 21.1
2014-Apr-23 15:57 267 5 gusting 10 21.1
2014-Apr-23 15:52 221 5 gusting 10 21.1
2014-Apr-23 15:47 264 5 gusting 11 21.1
2014-Apr-23 15:42 287 6 gusting 11 21.1
2014-Apr-23 15:37 277 6 gusting 11 21.1
2014-Apr-23 15:32 230 5 gusting 11 21.1
2014-Apr-23 15:27 228 5 gusting 11 21.1
2014-Apr-23 15:22 263 5 gusting 7 21.1
2014-Apr-23 15:17 250 5 gusting 7 21.7
2014-Apr-23 15:12 213 3 gusting 6 21.7
2014-Apr-23 15:07 254 3 gusting 6 21.7
2014-Apr-23 15:02 203 4 gusting 6 21.7
2014-Apr-23 14:57 221 3 gusting 6 21.7
2014-Apr-23 14:52 194 3 gusting 6 21.7
2014-Apr-23 14:47 235 2 gusting 6 21.7
2014-Apr-23 14:42 240 3 gusting 6 21.7
2014-Apr-23 14:37 245 2 gusting 6 21.7
2014-Apr-23 14:32 257 2 gusting 7 21.7
2014-Apr-23 14:27 222 3 gusting 10 21.1
2014-Apr-23 14:22 265 5 gusting 11 21.1
2014-Apr-23 14:17 257 5 gusting 11 21.7
2014-Apr-23 14:12 201 3 gusting 8 21.1
2014-Apr-23 14:07 219 2 gusting 8 21.1
2014-Apr-23 14:02 281 4 gusting 10 21.1
2014-Apr-23 13:57 259 5 gusting 10 21.1
2014-Apr-23 13:52 284 4 gusting 10 21.7
2014-Apr-23 13:47 252 3 gusting 8 21.7
2014-Apr-23 13:42 251 3 gusting 9 21.7
2014-Apr-23 13:37 229 3 gusting 9 21.1
2014-Apr-23 13:32 290 3 gusting 7 21.1
2014-Apr-23 13:27 300 2 gusting 7 21.1
2014-Apr-23 13:22 298 3 gusting 7 21.1
2014-Apr-23 13:17 222 2 gusting 7 21.7
2014-Apr-23 13:12 211 2 gusting 11 21.1
2014-Apr-23 13:07 138 3 gusting 11 21.1
2014-Apr-23 13:02 199 2 gusting 4 21.1
2014-Apr-23 12:57 242 0 gusting 6 20.6
2014-Apr-23 12:52 323 1 gusting 6 20.6
2014-Apr-23 12:47 317 2 gusting 6 20.6
2014-Apr-23 12:42 283 1 gusting 5 20.6
2014-Apr-23 12:37 313 0 gusting 5 20.6
2014-Apr-23 12:32 044 1 gusting 6 20.6
2014-Apr-23 12:27 221 2 gusting 6 20.0
2014-Apr-23 12:22 219 3 gusting 6 20.0
2014-Apr-23 12:17 140 2 gusting 6 20.0
2014-Apr-23 12:12 163 1 gusting 6 20.0
2014-Apr-23 12:07 161 2 gusting 5 20.0
2014-Apr-23 12:02 228 2 gusting 5 20.0
2014-Apr-23 11:57 132 1 gusting 4 20.0
2014-Apr-23 11:52 107 0 gusting 4 20.0
2014-Apr-23 11:47 245 0 gusting 4 19.4
2014-Apr-23 11:42 173 0 gusting 5 19.4
2014-Apr-23 11:37 108 0 gusting 5 19.4
2014-Apr-23 11:32 111 1 gusting 6 19.4
2014-Apr-23 11:27 086 2 gusting 6 19.4
2014-Apr-23 11:22 065 2 gusting 4 19.4
2014-Apr-23 11:17 067 0 gusting 4 19.4
2014-Apr-23 11:12 050 0 gusting 3 18.9
2014-Apr-23 11:07 055 1 gusting 3 18.9
2014-Apr-23 11:02 071 0 gusting 4 18.9
2014-Apr-23 10:57 18.9
2014-Apr-23 10:52 086 1 gusting 5 18.3
2014-Apr-23 10:47 042 1 gusting 5 18.3
2014-Apr-23 10:42 005 1 gusting 4 18.3
2014-Apr-23 10:37 288 1 gusting 4 17.8
2014-Apr-23 10:32 299 0 gusting 3 17.8
2014-Apr-23 10:27 299 1 gusting 4 17.2
2014-Apr-23 10:22 035 1 gusting 4 17.2
2014-Apr-23 10:17 029 1 gusting 4 16.7
2014-Apr-23 10:12 040 1 gusting 4 16.7
2014-Apr-23 10:07 073 1 gusting 3 16.7
2014-Apr-23 10:02 074 0 gusting 3 16.7
2014-Apr-23 09:57 074 16.1
2014-Apr-23 09:52 074 0 gusting 4 15.6
2014-Apr-23 09:47 074 0 gusting 4 15.6
2014-Apr-23 09:42 074 0 gusting 4 15.6
2014-Apr-23 09:37 140 0 gusting 4 15.0
2014-Apr-23 09:32 106 15.0
2014-Apr-23 09:27 106 14.4
2014-Apr-23 09:22 106 14.4
2014-Apr-23 09:17 106 14.4
2014-Apr-23 09:12 106 0 gusting 5 13.9
2014-Apr-23 09:02 085 0 gusting 3 13.9
2014-Apr-23 08:57 044 0 gusting 3 13.9
2014-Apr-23 08:52 045 0 gusting 2 13.9
2014-Apr-23 08:47 284 13.9
2014-Apr-23 08:42 284 13.9
2014-Apr-23 08:37 284 13.9
2014-Apr-23 08:32 284 13.9
2014-Apr-23 08:27 284 13.9
2014-Apr-23 08:22 284 13.3
2014-Apr-23 08:17 284 13.3
2014-Apr-23 08:12 284 13.3
2014-Apr-23 08:07 284 0 gusting 3 13.3
2014-Apr-23 08:02 284 1 gusting 3 13.3
2014-Apr-23 07:57 284 0 gusting 2 13.3
2014-Apr-23 07:52 284 0 gusting 2 13.3
2014-Apr-23 07:47 284 0 gusting 2 13.3
2014-Apr-23 07:42 284 13.3
2014-Apr-23 07:37 284 13.3
2014-Apr-23 07:32 284 13.3
2014-Apr-23 07:27 284 13.3
2014-Apr-23 07:22 284 13.3
2014-Apr-23 07:17 284 0 gusting 2 13.3
2014-Apr-23 07:12 284 0 gusting 1 13.3
2014-Apr-23 07:07 284 12.8
2014-Apr-23 07:02 284 12.8
2014-Apr-23 06:57 284 12.8
2014-Apr-23 06:52 284 12.8
2014-Apr-23 06:47 284 12.8
2014-Apr-23 06:42 284 12.8
2014-Apr-23 06:37 284 12.8
2014-Apr-23 06:32 284 12.8
2014-Apr-23 06:27 284 12.2
2014-Apr-23 06:22 284 12.2
2014-Apr-23 06:17 284 0 gusting 3 12.2
2014-Apr-23 06:12 284 0 12.2
2014-Apr-23 06:07 284 12.2
2014-Apr-23 06:02 284 12.2
2014-Apr-23 05:57 284 12.2
2014-Apr-23 05:52 284 11.7
2014-Apr-23 05:47 284 0 gusting 2 11.7
2014-Apr-23 05:42 284 0 gusting 4 11.7
2014-Apr-23 05:37 284 0 gusting 4 11.7
2014-Apr-23 05:32 284 1 gusting 4 11.7
2014-Apr-23 05:27 284 2 gusting 4 11.7
2014-Apr-23 05:22 284 2 gusting 3 11.7
2014-Apr-23 05:17 283 1 gusting 3 11.7
2014-Apr-23 05:12 241 1 gusting 2 11.7
2014-Apr-23 05:07 241 1 gusting 2 11.7
2014-Apr-23 05:02 241 1 gusting 2 11.7
2014-Apr-23 04:57 241 0 gusting 2 11.7
2014-Apr-23 04:52 241 11.7
2014-Apr-23 04:47 241 0 gusting 2 11.7
2014-Apr-23 04:42 241 0 gusting 2 11.7
2014-Apr-23 04:37 241 0 gusting 3 11.7
2014-Apr-23 04:32 241 0 gusting 3 11.7
2014-Apr-23 04:27 241 1 gusting 3 11.7
2014-Apr-23 04:22 241 0 gusting 3 12.2
2014-Apr-23 04:17 241 0 gusting 3 12.2
2014-Apr-23 04:12 241 0 gusting 3 12.2
2014-Apr-23 04:07 240 0 gusting 2 12.8
2014-Apr-23 04:02 241 0 gusting 2 12.8
2014-Apr-23 03:57 241 12.8
2014-Apr-23 03:52 241 12.8
2014-Apr-23 03:47 241 12.8
2014-Apr-23 03:42 241 12.8
2014-Apr-23 03:37 241 13.3
2014-Apr-23 03:32 241 13.3
2014-Apr-23 03:27 241 13.3
2014-Apr-23 03:22 241 13.3
2014-Apr-23 03:17 241 13.3
2014-Apr-23 03:12 241 13.3
2014-Apr-23 03:07 241 13.3
2014-Apr-23 03:02 241 13.9
2014-Apr-23 02:57 241 13.9
2014-Apr-23 02:52 241 13.9
2014-Apr-23 02:47 241 13.9
2014-Apr-23 02:42 241 13.9
2014-Apr-23 02:37 241 13.9
2014-Apr-23 02:32 241 13.9
2014-Apr-23 02:27 241 13.9
2014-Apr-23 02:22 241 13.9
2014-Apr-23 02:17 241 13.9
2014-Apr-23 02:12 241 13.9
2014-Apr-23 02:07 241 0 gusting 3 13.9
2014-Apr-23 02:02 241 1 gusting 3 14.4
2014-Apr-23 01:57 241 1 gusting 3 14.4
2014-Apr-23 01:52 241 0 gusting 3 14.4
2014-Apr-23 01:47 241 14.4
2014-Apr-23 01:42 241 14.4
2014-Apr-23 01:37 241 14.4
2014-Apr-23 01:32 241 14.4
2014-Apr-23 01:27 241 14.4
2014-Apr-23 01:22 241 0 gusting 3 14.4
2014-Apr-23 01:17 241 0 gusting 3 14.4
2014-Apr-23 01:12 241 14.4
2014-Apr-23 01:07 241 14.4
2014-Apr-23 01:02 241 14.4
2014-Apr-23 00:57 241 14.4
2014-Apr-23 00:52 241 14.4
2014-Apr-23 00:47 241 14.4
2014-Apr-23 00:42 241 14.4
2014-Apr-23 00:37 241 14.4
2014-Apr-23 00:32 241 0 gusting 2 14.4
2014-Apr-23 00:27 241 0 gusting 2 14.4
2014-Apr-23 00:22 241 15.0
2014-Apr-23 00:17 241 15.0
2014-Apr-23 00:12 241 0 gusting 3 15.0
2014-Apr-23 00:07 241 0 gusting 3 15.0
2014-Apr-23 00:02 241 0 gusting 3 15.0
2014-Apr-22 23:57 241 15.0
2014-Apr-22 23:52 241 15.0
2014-Apr-22 23:47 241 15.0
2014-Apr-22 23:42 241 15.0
2014-Apr-22 23:37 241 15.0
2014-Apr-22 23:32 241 15.0
2014-Apr-22 23:27 241 15.0
2014-Apr-22 23:22 241 15.0
2014-Apr-22 23:17 241 15.0
2014-Apr-22 23:12 241 15.0
2014-Apr-22 23:07 241 15.0
2014-Apr-22 23:02 241 0 gusting 2 15.0
2014-Apr-22 22:57 241 1 gusting 2 15.0
2014-Apr-22 22:52 241 1 gusting 2 15.0
2014-Apr-22 22:47 241 0 gusting 3 15.6
2014-Apr-22 22:42 241 0 gusting 3 15.6
2014-Apr-22 22:37 241 0 gusting 3 15.6
2014-Apr-22 22:32 241 0 gusting 3 15.6
2014-Apr-22 22:27 241 0 gusting 2 15.6
2014-Apr-22 22:22 241 0 gusting 2 15.6
2014-Apr-22 22:17 241 0 gusting 2 15.6
2014-Apr-22 22:12 241 0 gusting 2 15.6
2014-Apr-22 22:07 241 15.6
2014-Apr-22 22:02 241 15.6